START_TIME,STEP,MOV.,M15,t_acc.,M20,t_acc.
1979-07-19 12:00:43.750 ,0,0,0.,24.0,0.,24.0
1979-07-19 12:01:07.750 ,1,1,0.,24.0,0.,24.0
1979-07-19 12:01:31.750 ,1,0,0.,24.0,0.,24.0
1979-07-19 12:01:55.750 ,2,1,0.,24.0,0.,24.0
1979-07-19 12:02:19.750 ,2,0,0.,24.0,0.,24.0
1979-07-19 12:02:43.750 ,3,1,0.,24.0,0.,24.0
1979-07-19 12:03:07.750 ,3,0,0.,24.0,0.,24.0
1979-07-19 12:03:31.750 ,4,1,0.,24.0,0.,24.0
1979-07-19 12:03:55.750 ,4,0,0.,24.0,0.,24.0
1979-07-19 12:04:19.750 ,5,1,0.,24.0,0.,24.0
1979-07-19 12:04:43.750 ,5,0,0.,24.0,0.,24.0
1979-07-19 12:05:07.750 ,6,1,0.,24.0,0.,24.0
1979-07-19 12:05:31.750 ,6,0,0.,24.0,0.,24.0
1979-07-19 12:05:55.750 ,7,1,0.,24.0,0.,24.0
1979-07-19 12:06:19.750 ,7,0,0.,24.0,0.,24.0
1979-07-19 12:06:43.750 ,7,1,0.,24.0,0.,24.0
1979-07-19 12:07:07.750 ,7,0,0.,24.0,0.,24.0
1979-07-19 12:07:31.750 ,6,1,0.,24.0,0.,24.0
1979-07-19 12:07:55.750 ,6,0,0.,24.0,0.,24.0
1979-07-19 12:08:19.750 ,5,1,0.,24.0,0.,24.0
1979-07-19 12:08:43.750 ,5,0,0.,24.0,0.,24.0
1979-07-19 12:09:07.750 ,4,1,0.,24.0,0.,24.0
1979-07-19 12:09:31.750 ,4,0,0.,24.0,0.,24.0
1979-07-19 12:09:55.750 ,3,1,0.,24.0,0.,24.0
1979-07-19 12:10:19.750 ,3,0,0.,24.0,0.,24.0
1979-07-19 12:10:43.750 ,2,1,0.,24.0,0.,24.0
1979-07-19 12:11:07.750 ,2,0,0.,24.0,0.,24.0
1979-07-19 12:11:31.750 ,1,1,0.,24.0,0.,24.0
1979-07-19 12:11:55.750 ,0,0,0.,24.0,0.,24.0
1979-07-19 12:12:19.750 ,0,1,0.,24.0,0.,24.0
1979-07-19 12:12:43.750 ,0,0,0.,24.0,0.,24.0
1979-07-19 12:13:07.750 ,0,1,0.,24.0,0.,24.0
1979-07-19 12:13:31.750 ,0,0,0.,24.0,0.,24.0
1979-07-19 12:13:55.750 ,1,1,0.,24.0,0.,24.0
1979-07-19 12:14:19.750 ,1,0,0.,24.0,0.,24.0
1979-07-19 12:14:43.750 ,0,0,,0,,0
1979-07-19 12:15:07.750 ,0,0,,0,,0
1979-07-19 12:15:46.150 ,0,0,,0,,0
1979-07-19 12:15:55.750 ,0,0,,0,,0
1979-07-19 12:18:42.550 ,0,0,,0,,0
1979-07-19 12:18:43.750 ,7,0,0.,24.0,0.,24.0
1979-07-19 12:19:07.750 ,7,0,0.,24.0,0.,24.0
1979-07-19 12:19:31.750 ,3,1,0.,24.0,0.,24.0
1979-07-19 12:19:55.750 ,0,1,0.,24.0,0.,24.0
1979-07-19 12:20:19.750 ,4,1,0.,24.0,0.,24.0
1979-07-19 12:20:43.750 ,7,1,0.,24.0,0.,24.0
1979-07-19 12:21:07.750 ,3,1,0.,24.0,0.,24.0
1979-07-19 12:21:31.750 ,0,1,0.,24.0,0.,24.0
1979-07-19 12:21:55.750 ,4,1,0.,24.0,0.,24.0
1979-07-19 12:22:19.750 ,7,1,0.,24.0,0.,24.0
1979-07-19 12:22:43.750 ,3,1,0.,24.0,0.,24.0
1979-07-19 12:23:07.750 ,0,1,0.,24.0,0.,24.0
1979-07-19 12:23:31.750 ,4,1,0.,24.0,0.,24.0
1979-07-19 12:23:55.750 ,7,1,0.,24.0,0.,24.0
1979-07-19 12:24:19.750 ,3,1,0.,24.0,0.,24.0
1979-07-19 12:24:43.750 ,0,1,0.,24.0,0.,24.0
1979-07-19 12:25:07.750 ,4,1,0.,24.0,0.,24.0
1979-07-19 12:25:31.750 ,7,1,0.,24.0,0.,24.0
1979-07-19 12:25:55.750 ,3,1,0.,24.0,0.,24.0
1979-07-19 12:26:19.750 ,0,1,0.,24.0,0.,24.0
1979-07-19 12:26:43.750 ,4,1,0.,24.0,0.,24.0
1979-07-19 12:27:07.750 ,7,1,0.,24.0,0.,24.0
1979-07-19 12:27:31.750 ,3,1,0.,24.0,0.,24.0
1979-07-19 12:27:55.750 ,0,1,0.,24.0,0.,24.0
1979-07-19 12:28:19.750 ,4,1,0.,24.0,0.,24.0
1979-07-19 12:28:43.750 ,7,1,0.,24.0,0.,24.0
1979-07-19 12:29:07.750 ,3,1,0.,24.0,0.,24.0
1979-07-19 12:29:31.750 ,0,1,0.,24.0,0.,24.0
1979-07-19 12:29:55.750 ,0,0,0.,24.0,0.,24.0
1979-07-19 12:30:19.750 ,0,0,0.,24.0,0.,24.0
1979-07-19 12:30:43.750 ,5,1,0.,24.0,0.,24.0
1979-07-19 12:31:07.750 ,5,0,0.,24.0,0.,24.0
1979-07-19 12:31:31.750 ,4,1,0.,24.0,0.,24.0
1979-07-19 12:31:55.750 ,4,0,0.,24.0,0.,24.0
1979-07-19 12:32:19.750 ,3,1,0.,24.0,0.,24.0
1979-07-19 12:32:43.750 ,3,0,0.,24.0,0.,24.0
1979-07-19 12:33:07.750 ,2,1,0.,24.0,0.,24.0
1979-07-19 12:33:31.750 ,2,0,0.,24.0,0.,24.0
1979-07-19 12:33:55.750 ,1,1,0.,24.0,0.,24.0
1979-07-19 12:34:19.750 ,1,0,0.,24.0,0.,24.0
1979-07-19 12:34:43.750 ,0,1,0.,24.0,0.,24.0
1979-07-19 12:35:07.750 ,0,0,0.,24.0,0.,24.0
1979-07-19 12:35:31.750 ,0,1,0.,24.0,0.,24.0
1979-07-19 12:35:55.750 ,0,0,0.,24.0,0.,24.0
1979-07-19 12:36:19.750 ,1,1,0.,24.0,0.,24.0
1979-07-19 12:36:43.750 ,1,0,0.,24.0,0.,24.0
1979-07-19 12:37:07.750 ,2,1,0.,24.0,0.,24.0
1979-07-19 12:37:31.750 ,2,0,0.,24.0,0.,24.0
1979-07-19 12:37:55.750 ,3,1,0.,24.0,0.,24.0
1979-07-19 12:38:19.750 ,3,0,0.,24.0,0.,24.0
1979-07-19 12:38:43.750 ,4,1,0.,24.0,0.,24.0
1979-07-19 12:39:07.750 ,4,0,0.,24.0,0.,24.0
1979-07-19 12:39:31.750 ,5,1,0.,24.0,0.,24.0
1979-07-19 12:39:55.750 ,5,0,0.,24.0,0.,24.0
1979-07-19 12:41:07.750 ,0,0,0.,24.0,0.,24.0
1979-07-19 12:41:31.750 ,0,0,0.,24.0,0.,24.0
1979-07-19 12:41:31.750 ,0,0,0.,24.0,0.,24.0
1979-07-19 12:41:55.750 ,7,1,0.,24.0,0.,24.0
1979-07-19 12:42:19.750 ,7,0,0.,24.0,0.,24.0
1979-07-19 12:42:43.750 ,6,1,0.,24.0,0.,24.0
1979-07-19 12:43:07.750 ,6,0,0.,24.0,0.,24.0
1979-07-19 12:43:31.750 ,5,1,0.,24.0,0.,24.0
1979-07-19 12:43:55.750 ,5,0,0.,24.0,0.,24.0
1979-07-19 12:44:19.750 ,4,1,0.,24.0,0.,24.0
1979-07-19 12:44:43.750 ,4,0,0.,24.0,0.,24.0
1979-07-19 12:45:07.750 ,3,1,0.,24.0,0.,24.0
1979-07-19 12:45:31.750 ,3,0,0.,24.0,0.,24.0
1979-07-19 12:45:55.750 ,2,1,0.,24.0,0.,24.0
1979-07-19 12:46:19.750 ,2,0,0.,24.0,0.,24.0
1979-07-19 12:46:43.750 ,1,1,0.,24.0,0.,24.0
1979-07-19 12:47:07.750 ,1,0,0.,24.0,0.,24.0
1979-07-19 12:47:31.750 ,0,1,0.,24.0,0.,24.0
1979-07-19 12:47:55.750 ,0,0,0.,24.0,0.,24.0
1979-07-19 12:48:19.750 ,0,1,0.,24.0,0.,24.0
1979-07-19 12:48:43.750 ,0,0,0.,24.0,0.,24.0
1979-07-19 12:49:07.750 ,1,1,0.,24.0,0.,24.0
1979-07-19 12:49:31.750 ,1,0,0.,24.0,0.,24.0
1979-07-19 12:49:55.750 ,2,1,0.,24.0,0.,24.0
1979-07-19 12:50:19.750 ,2,0,0.,24.0,0.,24.0
1979-07-19 12:50:43.750 ,3,1,0.,24.0,0.,24.0
1979-07-19 12:51:07.750 ,3,0,0.,24.0,0.,24.0
1979-07-19 12:51:31.750 ,4,1,0.,24.0,0.,24.0
1979-07-19 12:51:55.750 ,4,0,0.,24.0,0.,24.0
1979-07-19 12:52:19.750 ,5,1,0.,24.0,0.,24.0
1979-07-19 12:52:43.750 ,5,0,0.,24.0,0.,24.0
1979-07-19 12:53:07.750 ,6,1,0.,24.0,0.,24.0
1979-07-19 12:53:31.750 ,6,0,0.,24.0,0.,24.0
1979-07-19 12:53:55.750 ,7,1,0.,24.0,0.,24.0
1979-07-19 12:54:19.750 ,7,0,0.,24.0,0.,24.0
1979-07-19 12:54:43.750 ,7,1,0.,24.0,0.,24.0
1979-07-19 12:55:07.750 ,7,0,0.,24.0,0.,24.0
1979-07-19 12:55:31.750 ,6,1,0.,24.0,0.,24.0
1979-07-19 12:55:55.750 ,6,0,0.,24.0,0.,24.0
1979-07-19 12:56:19.750 ,5,1,0.,24.0,0.,24.0
1979-07-19 12:56:43.750 ,5,0,0.,24.0,0.,24.0
1979-07-19 12:57:07.750 ,4,1,0.,24.0,0.,24.0
1979-07-19 12:57:31.750 ,4,0,0.,24.0,0.,24.0
1979-07-19 12:57:55.750 ,3,1,0.,24.0,0.,24.0
1979-07-19 12:58:19.750 ,3,0,0.,24.0,0.,24.0
1979-07-19 12:58:43.750 ,2,1,0.,24.0,0.,24.0
1979-07-19 12:59:07.750 ,2,0,0.,24.0,0.,24.0
1979-07-19 12:59:31.750 ,1,1,0.,24.0,0.,24.0
1979-07-19 12:59:55.750 ,1,0,0.,24.0,0.,24.0
1979-07-19 13:00:19.750 ,0,1,0.,24.0,0.,24.0
1979-07-19 13:00:43.750 ,0,0,0.,24.0,0.,24.0
1979-07-19 13:01:07.750 ,0,1,0.,24.0,0.,24.0
1979-07-19 13:01:31.750 ,0,0,0.,24.0,0.,24.0
1979-07-19 13:01:55.750 ,1,1,0.,24.0,0.,24.0
1979-07-19 13:02:19.750 ,1,0,0.,24.0,0.,24.0
1979-07-19 13:02:43.750 ,2,1,0.,24.0,0.,24.0
1979-07-19 13:03:07.750 ,2,0,0.,24.0,0.,24.0
1979-07-19 13:03:31.750 ,3,1,0.,24.0,0.,24.0
1979-07-19 13:03:55.750 ,3,0,0.,24.0,0.,24.0
1979-07-19 13:04:19.750 ,4,1,0.,24.0,0.,24.0
1979-07-19 13:04:43.750 ,4,0,0.,24.0,0.,24.0
1979-07-19 13:05:07.750 ,5,1,0.,24.0,0.,24.0
1979-07-19 13:05:31.750 ,5,0,0.,24.0,0.,24.0
1979-07-19 13:05:55.750 ,6,1,0.,24.0,0.,24.0
1979-07-19 13:06:19.750 ,6,0,0.,24.0,0.,24.0
1979-07-19 13:06:43.750 ,7,0,0.,24.0,0.,24.0
1979-07-19 13:07:07.750 ,7,0,0.,24.0,0.,24.0
1979-07-19 13:07:31.750 ,3,1,0.,24.0,0.,24.0
1979-07-19 13:07:55.750 ,0,1,0.,24.0,0.,24.0
1979-07-19 13:08:19.750 ,4,1,0.,24.0,0.,24.0
1979-07-19 13:08:43.750 ,7,1,0.,24.0,0.,24.0
1979-07-19 13:09:07.750 ,3,1,0.,24.0,0.,24.0
1979-07-19 13:09:31.750 ,0,1,0.,24.0,0.,24.0
1979-07-19 13:09:55.750 ,4,1,0.,24.0,0.,24.0
1979-07-19 13:10:19.750 ,7,1,0.,24.0,0.,24.0
1979-07-19 13:10:43.750 ,3,1,0.,24.0,0.,24.0
1979-07-19 13:11:07.750 ,0,1,0.,24.0,0.,24.0
1979-07-19 13:11:31.750 ,4,1,0.,24.0,0.,24.0
1979-07-19 13:11:55.750 ,7,1,0.,24.0,0.,24.0
1979-07-19 13:12:19.750 ,3,1,0.,24.0,0.,24.0
1979-07-19 13:12:43.750 ,0,1,0.,24.0,0.,24.0
1979-07-19 13:13:07.750 ,4,1,0.,24.0,0.,24.0
1979-07-19 13:13:31.750 ,7,1,0.,24.0,0.,24.0
1979-07-19 13:13:55.750 ,3,1,0.,24.0,0.,24.0
1979-07-19 13:14:19.750 ,0,1,0.,24.0,0.,24.0
1979-07-19 13:14:43.750 ,4,1,0.,24.0,0.,24.0
1979-07-19 13:15:07.750 ,7,1,0.,24.0,0.,24.0
1979-07-19 13:15:31.750 ,3,1,0.,24.0,0.,24.0
1979-07-19 13:15:55.750 ,0,1,0.,24.0,0.,24.0
1979-07-19 13:16:19.740 ,4,1,0.,24.0,0.,24.0
1979-07-19 13:16:43.740 ,7,1,0.,24.0,0.,24.0
1979-07-19 13:17:07.740 ,3,1,0.,24.0,0.,24.0
1979-07-19 13:17:31.740 ,0,1,0.,24.0,0.,24.0
1979-07-19 13:17:55.740 ,0,0,0.,24.0,0.,24.0
1979-07-19 13:18:19.740 ,0,0,0.,24.0,0.,24.0
1979-07-19 13:18:43.740 ,5,1,0.,24.0,0.,24.0
1979-07-19 13:19:07.740 ,5,0,0.,24.0,0.,24.0
1979-07-19 13:19:31.740 ,4,1,0.,24.0,0.,24.0
1979-07-19 13:19:55.740 ,4,0,0.,24.0,0.,24.0
1979-07-19 13:20:19.740 ,3,1,0.,24.0,0.,24.0
1979-07-19 13:20:43.740 ,3,0,0.,24.0,0.,24.0
1979-07-19 13:21:07.740 ,2,1,0.,24.0,0.,24.0
1979-07-19 13:21:31.740 ,2,0,0.,24.0,0.,24.0
1979-07-19 13:21:55.740 ,1,1,0.,24.0,0.,24.0
1979-07-19 13:22:19.740 ,1,0,0.,24.0,0.,24.0
1979-07-19 13:22:43.740 ,0,1,0.,24.0,0.,24.0
1979-07-19 13:23:07.740 ,0,0,0.,24.0,0.,24.0
1979-07-19 13:23:31.740 ,0,1,0.,24.0,0.,24.0
1979-07-19 13:23:55.740 ,0,0,0.,24.0,0.,24.0
1979-07-19 13:24:19.740 ,1,1,0.,24.0,0.,24.0
1979-07-19 13:24:43.740 ,1,0,0.,24.0,0.,24.0
1979-07-19 13:25:07.740 ,2,1,0.,24.0,0.,24.0
1979-07-19 13:25:31.740 ,2,0,0.,24.0,0.,24.0
1979-07-19 13:25:55.740 ,3,1,0.,24.0,0.,24.0
1979-07-19 13:26:19.740 ,3,0,0.,24.0,0.,24.0
1979-07-19 13:26:43.740 ,4,1,0.,24.0,0.,24.0
1979-07-19 13:27:07.740 ,4,0,0.,24.0,0.,24.0
1979-07-19 13:27:31.740 ,5,1,0.,24.0,0.,24.0
1979-07-19 13:27:55.740 ,5,0,0.,24.0,0.,24.0
1979-07-19 13:28:19.740 ,6,1,0.,24.0,0.,24.0
1979-07-19 13:28:43.740 ,6,0,0.,24.0,0.,24.0
1979-07-19 13:29:07.740 ,7,1,0.,24.0,0.,24.0
1979-07-19 13:29:31.740 ,7,0,0.,24.0,0.,24.0
1979-07-19 13:29:55.740 ,7,1,0.,24.0,0.,24.0
1979-07-19 13:30:19.740 ,7,0,0.,24.0,0.,24.0
1979-07-19 13:30:43.740 ,6,1,0.,24.0,0.,24.0
1979-07-19 13:31:07.740 ,6,0,0.,24.0,0.,24.0
1979-07-19 13:31:31.740 ,5,1,0.,24.0,0.,24.0
1979-07-19 13:31:55.740 ,5,0,0.,24.0,0.,24.0
1979-07-19 13:32:19.740 ,4,1,0.,24.0,0.,24.0
1979-07-19 13:32:43.740 ,4,0,0.,24.0,0.,24.0
1979-07-19 13:33:07.740 ,3,1,0.,24.0,0.,24.0
1979-07-19 13:33:31.740 ,3,0,0.,24.0,0.,24.0
1979-07-19 13:33:55.740 ,2,1,0.,24.0,0.,24.0
1979-07-19 13:34:19.740 ,2,0,0.,24.0,0.,24.0
1979-07-19 13:34:43.740 ,1,1,0.,24.0,0.,24.0
1979-07-19 13:35:07.740 ,1,0,0.,24.0,0.,24.0
1979-07-19 13:35:31.740 ,0,1,0.,24.0,0.,24.0
1979-07-19 13:35:55.740 ,0,0,0.,24.0,0.,24.0
1979-07-19 13:36:19.740 ,0,1,0.,24.0,0.,24.0
1979-07-19 13:36:43.740 ,0,0,0.,24.0,0.,24.0
1979-07-19 13:37:07.740 ,1,1,0.,24.0,0.,24.0
1979-07-19 13:37:31.740 ,1,0,0.,24.0,0.,24.0
1979-07-19 13:37:55.740 ,2,1,0.,24.0,0.,24.0
1979-07-19 13:38:19.740 ,2,0,0.,24.0,0.,24.0
1979-07-19 13:38:43.740 ,3,1,0.,24.0,0.,24.0
1979-07-19 13:39:07.740 ,3,0,0.,24.0,0.,24.0
1979-07-19 13:39:31.740 ,4,1,0.,24.0,0.,24.0
1979-07-19 13:39:55.740 ,4,0,0.,24.0,0.,24.0
1979-07-19 13:40:19.740 ,5,1,0.,24.0,0.,24.0
1979-07-19 13:40:43.740 ,5,0,0.,24.0,0.,24.0
1979-07-19 13:41:07.740 ,6,1,0.,24.0,0.,24.0
1979-07-19 13:41:31.740 ,6,0,0.,24.0,0.,24.0
1979-07-19 13:41:55.740 ,7,1,0.,24.0,0.,24.0
1979-07-19 13:42:19.740 ,7,0,0.,24.0,0.,24.0
1979-07-19 13:42:43.740 ,7,1,0.,24.0,0.,24.0
1979-07-19 13:43:07.740 ,7,0,0.,24.0,0.,24.0
1979-07-19 13:43:31.740 ,6,1,0.,24.0,0.,24.0
1979-07-19 13:43:55.740 ,6,0,0.,24.0,0.,24.0
1979-07-19 13:44:19.740 ,5,1,0.,24.0,0.,24.0
1979-07-19 13:44:43.740 ,5,0,0.,24.0,0.,24.0
1979-07-19 13:45:07.740 ,4,1,0.,24.0,0.,24.0
1979-07-19 13:45:31.740 ,4,0,0.,24.0,0.,24.0
1979-07-19 13:45:55.740 ,3,1,0.,24.0,0.,24.0
1979-07-19 13:46:19.740 ,3,0,0.,24.0,0.,24.0
1979-07-19 13:46:43.740 ,2,1,0.,24.0,0.,24.0
1979-07-19 13:47:07.740 ,2,0,0.,24.0,0.,24.0
1979-07-19 13:47:31.740 ,1,1,0.,24.0,0.,24.0
1979-07-19 13:47:55.740 ,1,0,0.,24.0,0.,24.0
1979-07-19 13:48:19.740 ,0,1,0.,24.0,0.,24.0
1979-07-19 13:48:43.740 ,0,0,0.,24.0,0.,24.0
1979-07-19 13:49:07.740 ,0,1,0.,24.0,0.,24.0
1979-07-19 13:49:31.740 ,0,0,0.,24.0,0.,24.0
1979-07-19 13:49:55.740 ,1,1,0.,24.0,0.,24.0
1979-07-19 13:50:19.740 ,1,0,0.,24.0,0.,24.0
1979-07-19 13:50:43.740 ,2,1,0.,24.0,0.,24.0
1979-07-19 13:51:07.740 ,2,0,0.,24.0,0.,24.0
1979-07-19 13:51:31.740 ,3,1,0.,24.0,0.,24.0
1979-07-19 13:51:55.740 ,3,0,0.,24.0,0.,24.0
1979-07-19 13:52:19.740 ,4,1,0.,24.0,0.,24.0
1979-07-19 13:52:43.740 ,4,0,0.,24.0,0.,24.0
1979-07-19 13:53:07.740 ,5,1,0.,24.0,0.,24.0
1979-07-19 13:53:31.740 ,5,0,0.,24.0,0.,24.0
1979-07-19 13:53:55.740 ,6,1,0.,24.0,0.,24.0
1979-07-19 13:54:19.740 ,6,0,0.,24.0,0.,24.0
1979-07-19 13:54:43.740 ,7,0,0.,24.0,0.,24.0
1979-07-19 13:55:07.740 ,7,0,0.,24.0,0.,24.0
1979-07-19 13:56:19.740 ,0,0,0.,24.0,0.,24.0
1979-07-19 13:56:43.740 ,7,1,0.,24.0,0.,24.0
1979-07-19 13:57:07.740 ,3,1,0.,24.0,0.,24.0
1979-07-19 13:57:31.740 ,0,1,0.,24.0,0.,24.0
1979-07-19 13:57:55.740 ,4,1,0.,24.0,0.,24.0
1979-07-19 13:58:19.740 ,7,1,0.,24.0,0.,24.0
1979-07-19 13:58:43.740 ,3,1,0.,24.0,0.,24.0
1979-07-19 13:59:07.740 ,0,1,0.,24.0,0.,24.0
1979-07-19 13:59:31.740 ,4,1,0.,24.0,0.,24.0
1979-07-19 13:59:55.740 ,7,1,0.,24.0,0.,24.0
1979-07-19 14:00:19.740 ,3,1,0.,24.0,0.,24.0
1979-07-19 14:00:43.740 ,0,1,0.,24.0,0.,24.0
1979-07-19 14:01:07.740 ,4,1,0.,24.0,0.,24.0
1979-07-19 14:01:31.740 ,7,1,0.,24.0,0.,24.0
1979-07-19 14:01:55.740 ,3,1,0.,24.0,0.,24.0
1979-07-19 14:02:19.740 ,0,1,0.,24.0,0.,24.0
1979-07-19 14:02:43.740 ,4,1,0.,24.0,0.,24.0
1979-07-19 14:03:07.740 ,7,1,0.,24.0,0.,24.0
1979-07-19 14:03:31.740 ,3,1,0.,24.0,0.,24.0
1979-07-19 14:03:55.740 ,0,1,0.,24.0,0.,24.0
1979-07-19 14:04:19.740 ,4,1,0.,24.0,0.,24.0
1979-07-19 14:04:43.740 ,7,1,0.,24.0,0.,24.0
1979-07-19 14:05:07.740 ,3,1,0.,24.0,0.,24.0
1979-07-19 14:05:31.740 ,0,1,0.,24.0,0.,24.0
1979-07-19 14:05:55.740 ,0,0,0.,24.0,0.,24.0
1979-07-19 14:06:19.740 ,0,0,0.,24.0,0.,24.0
1979-07-19 14:06:43.740 ,5,1,0.,24.0,0.,24.0
1979-07-19 14:07:07.740 ,5,0,1.,24.0,0.,24.0
1979-07-19 14:07:31.740 ,4,1,0.,24.0,0.,24.0
1979-07-19 14:07:55.740 ,4,0,0.,24.0,0.,24.0
1979-07-19 14:08:19.740 ,3,1,0.,24.0,0.,24.0
1979-07-19 14:08:43.740 ,3,0,0.,24.0,0.,24.0
1979-07-19 14:09:07.740 ,2,1,0.,24.0,0.,24.0
1979-07-19 14:09:31.740 ,2,0,0.,24.0,0.,24.0
1979-07-19 14:09:55.740 ,1,1,0.,24.0,0.,24.0
1979-07-19 14:10:19.740 ,1,0,0.,24.0,0.,24.0
1979-07-19 14:10:43.740 ,0,1,0.,24.0,0.,24.0
1979-07-19 14:11:07.740 ,0,0,0.,24.0,0.,24.0
1979-07-19 14:11:31.740 ,0,1,0.,24.0,0.,24.0
1979-07-19 14:11:55.740 ,0,0,0.,24.0,0.,24.0
1979-07-19 14:12:19.740 ,1,1,0.,24.0,0.,24.0
1979-07-19 14:12:43.740 ,1,0,0.,24.0,0.,24.0
1979-07-19 14:13:07.740 ,2,1,0.,24.0,0.,24.0
1979-07-19 14:13:31.740 ,2,0,0.,24.0,0.,24.0
1979-07-19 14:13:55.740 ,3,1,0.,24.0,0.,24.0
1979-07-19 14:14:19.740 ,3,0,0.,24.0,0.,24.0
1979-07-19 14:14:43.740 ,4,1,0.,24.0,0.,24.0
1979-07-19 14:15:07.740 ,4,0,0.,24.0,0.,24.0
1979-07-19 14:15:31.740 ,5,1,0.,24.0,0.,24.0
1979-07-19 14:15:55.740 ,5,0,0.,24.0,0.,24.0
1979-07-19 14:16:19.740 ,6,1,0.,24.0,0.,24.0
1979-07-19 14:16:43.740 ,6,0,0.,24.0,0.,24.0
1979-07-19 14:17:07.740 ,7,1,0.,24.0,0.,24.0
1979-07-19 14:17:31.740 ,7,0,0.,24.0,0.,24.0
1979-07-19 14:17:55.740 ,7,1,0.,24.0,0.,24.0
1979-07-19 14:18:19.740 ,7,0,0.,24.0,0.,24.0
1979-07-19 14:18:43.740 ,6,1,0.,24.0,0.,24.0
1979-07-19 14:19:07.740 ,6,0,0.,24.0,0.,24.0
1979-07-19 14:19:31.740 ,5,1,0.,24.0,0.,24.0
1979-07-19 14:19:55.740 ,5,0,0.,24.0,0.,24.0
1979-07-19 14:20:19.740 ,4,1,0.,24.0,0.,24.0
1979-07-19 14:20:43.740 ,4,0,0.,24.0,0.,24.0
1979-07-19 14:21:07.740 ,3,1,0.,24.0,0.,24.0
1979-07-19 14:21:31.740 ,3,0,0.,24.0,0.,24.0
1979-07-19 14:21:55.740 ,2,1,0.,24.0,0.,24.0
1979-07-19 14:22:19.740 ,2,0,0.,24.0,0.,24.0
1979-07-19 14:22:43.740 ,1,1,0.,24.0,0.,24.0
1979-07-19 14:23:07.740 ,1,0,0.,24.0,0.,24.0
1979-07-19 14:23:31.740 ,0,1,0.,24.0,0.,24.0
1979-07-19 14:23:55.740 ,0,0,0.,24.0,0.,24.0
1979-07-19 14:24:19.740 ,0,1,0.,24.0,0.,24.0
1979-07-19 14:24:43.740 ,0,0,0.,24.0,0.,24.0
1979-07-19 14:25:07.740 ,1,1,0.,24.0,0.,24.0
1979-07-19 14:25:31.740 ,1,0,0.,24.0,0.,24.0
1979-07-19 14:25:55.740 ,2,1,0.,24.0,0.,24.0
1979-07-19 14:26:19.740 ,2,0,0.,24.0,0.,24.0
1979-07-19 14:26:43.740 ,3,1,0.,24.0,0.,24.0
1979-07-19 14:27:07.740 ,3,0,0.,24.0,0.,24.0
1979-07-19 14:27:31.740 ,4,1,0.,24.0,0.,24.0
1979-07-19 14:27:55.740 ,4,0,0.,24.0,0.,24.0
1979-07-19 14:28:19.740 ,5,1,0.,24.0,0.,24.0
1979-07-19 14:28:43.740 ,5,0,0.,24.0,0.,24.0
1979-07-19 14:29:07.740 ,6,1,0.,24.0,0.,24.0
1979-07-19 14:29:31.740 ,6,0,0.,24.0,0.,24.0
1979-07-19 14:29:55.740 ,7,1,0.,24.0,0.,24.0
1979-07-19 14:30:19.740 ,7,0,0.,24.0,0.,24.0
1979-07-19 14:30:43.740 ,7,1,0.,24.0,0.,24.0
1979-07-19 14:31:07.740 ,7,0,0.,24.0,0.,24.0
1979-07-19 14:31:31.740 ,6,1,0.,24.0,0.,24.0
1979-07-19 14:31:55.740 ,6,0,0.,24.0,0.,24.0
1979-07-19 14:32:19.740 ,5,1,0.,24.0,0.,24.0
1979-07-19 14:32:43.740 ,5,0,0.,24.0,0.,24.0
1979-07-19 14:33:07.740 ,4,1,0.,24.0,0.,24.0
1979-07-19 14:33:31.740 ,4,0,0.,24.0,0.,24.0
1979-07-19 14:33:55.740 ,3,1,0.,24.0,0.,24.0
1979-07-19 14:34:19.740 ,3,0,0.,24.0,0.,24.0
1979-07-19 14:34:43.740 ,2,1,0.,24.0,0.,24.0
1979-07-19 14:35:07.740 ,2,0,0.,24.0,0.,24.0
1979-07-19 14:35:31.740 ,1,1,0.,24.0,0.,24.0
1979-07-19 14:35:55.740 ,1,0,0.,24.0,0.,24.0
1979-07-19 14:36:19.740 ,0,1,0.,24.0,0.,24.0
1979-07-19 14:36:43.740 ,0,0,0.,24.0,0.,24.0
1979-07-19 14:37:07.740 ,0,1,0.,24.0,0.,24.0
1979-07-19 14:37:31.740 ,0,0,0.,24.0,0.,24.0
1979-07-19 14:37:55.740 ,1,1,0.,24.0,0.,24.0
1979-07-19 14:38:19.740 ,1,0,0.,24.0,0.,24.0
1979-07-19 14:38:43.740 ,2,1,0.,24.0,0.,24.0
1979-07-19 14:39:07.740 ,2,0,0.,24.0,0.,24.0
1979-07-19 14:39:31.740 ,3,1,0.,24.0,0.,24.0
1979-07-19 14:39:55.740 ,3,0,0.,24.0,0.,24.0
1979-07-19 14:40:19.740 ,4,1,0.,24.0,0.,24.0
1979-07-19 14:40:43.740 ,4,0,0.,24.0,0.,24.0
1979-07-19 14:41:07.740 ,5,1,0.,24.0,0.,24.0
1979-07-19 14:41:31.740 ,5,0,0.,24.0,0.,24.0
1979-07-19 14:41:55.740 ,6,1,0.,24.0,0.,24.0
1979-07-19 14:42:19.740 ,6,0,0.,24.0,0.,24.0
1979-07-19 14:42:43.740 ,7,0,0.,24.0,0.,24.0
1979-07-19 14:43:07.740 ,7,0,0.,24.0,0.,24.0
1979-07-19 14:43:31.740 ,3,1,0.,24.0,0.,24.0
1979-07-19 14:43:55.740 ,0,1,0.,24.0,0.,24.0
1979-07-19 14:44:19.740 ,4,1,0.,24.0,0.,24.0
1979-07-19 14:44:43.740 ,7,1,0.,24.0,0.,24.0
1979-07-19 14:45:07.740 ,3,1,0.,24.0,0.,24.0
1979-07-19 14:45:31.740 ,0,1,0.,24.0,0.,24.0
1979-07-19 14:45:55.740 ,4,1,0.,24.0,0.,24.0
1979-07-19 14:46:19.740 ,7,1,0.,24.0,0.,24.0
1979-07-19 14:46:43.740 ,3,1,0.,24.0,0.,24.0
1979-07-19 14:47:07.740 ,0,1,0.,24.0,0.,24.0
1979-07-19 14:47:31.740 ,4,1,0.,24.0,0.,24.0
1979-07-19 14:47:55.740 ,7,1,0.,24.0,0.,24.0
1979-07-19 14:48:19.740 ,3,1,0.,24.0,0.,24.0
1979-07-19 14:48:43.740 ,0,1,0.,24.0,0.,24.0
1979-07-19 14:49:07.740 ,4,1,0.,24.0,0.,24.0
1979-07-19 14:49:31.740 ,7,1,0.,24.0,0.,24.0
1979-07-19 14:49:55.740 ,3,1,0.,24.0,0.,24.0
1979-07-19 14:50:19.740 ,0,1,0.,24.0,0.,24.0
1979-07-19 14:50:43.740 ,4,1,0.,24.0,0.,24.0
1979-07-19 14:51:07.740 ,7,1,0.,24.0,0.,24.0
1979-07-19 14:51:31.740 ,3,1,0.,24.0,0.,24.0
1979-07-19 14:51:55.740 ,0,1,0.,24.0,0.,24.0
1979-07-19 14:52:19.740 ,4,1,0.,24.0,0.,24.0
1979-07-19 14:52:43.740 ,7,1,0.,24.0,0.,24.0
1979-07-19 14:53:07.740 ,3,1,0.,24.0,0.,24.0
1979-07-19 14:53:31.740 ,0,1,0.,24.0,0.,24.0
1979-07-19 14:53:55.740 ,0,0,0.,24.0,0.,24.0
1979-07-19 14:54:19.740 ,0,0,0.,24.0,0.,24.0
1979-07-19 14:54:43.740 ,5,1,0.,24.0,0.,24.0
1979-07-19 14:55:07.740 ,5,0,0.,24.0,0.,24.0
1979-07-19 14:55:31.740 ,4,1,0.,24.0,0.,24.0
1979-07-19 14:55:55.740 ,4,0,0.,24.0,0.,24.0
1979-07-19 14:56:19.740 ,3,1,0.,24.0,0.,24.0
1979-07-19 14:56:43.740 ,3,0,0.,24.0,0.,24.0
1979-07-19 14:57:07.740 ,2,1,0.,24.0,0.,24.0
1979-07-19 14:57:31.740 ,2,0,0.,24.0,0.,24.0
1979-07-19 14:57:55.740 ,1,1,0.,24.0,0.,24.0
1979-07-19 14:58:19.740 ,1,0,0.,24.0,0.,24.0
1979-07-19 14:58:43.740 ,0,1,0.,24.0,0.,24.0
1979-07-19 14:59:07.740 ,0,0,0.,24.0,0.,24.0
1979-07-19 14:59:31.740 ,0,1,0.,24.0,0.,24.0
1979-07-19 14:59:55.740 ,0,0,0.,24.0,0.,24.0
1979-07-19 15:00:19.740 ,1,1,0.,24.0,0.,24.0
